This is the latest recevied weather packets stored in our database for station/object KC9Q. If no packets are shown the sender has not sent any weather packets the latest 10 day(s).
| Time | Temp. | Humidity | Pressure | Rain* | Wind** | Luminosity | Snow |
|---|---|---|---|---|---|---|---|
| 1788627759 | 35.56° C | 54% | 1013.1 hPa | 0 mm | - | 830 W/m² | - |
| 1788627154 | 35° C | 55% | 1013.3 hPa | 0 mm | - | 819 W/m² | - |
| 1788626244 | 35° C | 54% | 1013.3 hPa | 0 mm | - | 805 W/m² | - |
| 1788625940 | 35° C | 54% | 1013.4 hPa | 0 mm | - | 219 W/m² | - |
| 1788625637 | 35° C | 58% | 1013.2 hPa | 0 mm | - | 153 W/m² | - |
| 1788625336 | 34.44° C | 55% | 1013.4 hPa | 0 mm | - | 268 W/m² | - |
| 1788621692 | 33.33° C | 69% | 1013.7 hPa | 0 mm | - | 102 W/m² | - |
| 1788621387 | 32.78° C | 66% | 1013.8 hPa | 0 mm | - | 98 W/m² | - |
| 1788620777 | 32.78° C | 69% | 1013.6 hPa | 0 mm | - | 98 W/m² | - |
| 1788620175 | 32.22° C | 68% | 1013.7 hPa | 0 mm | - | 99 W/m² | - |
| 1788619874 | 31.67° C | 70% | 1013.6 hPa | 0 mm | - | 92 W/m² | - |
| 1788619569 | 31.67° C | 68% | 1013.7 hPa | 0 mm | - | 199 W/m² | - |
| 1788619268 | 31.11° C | 71% | 1013.4 hPa | 0 mm | - | 180 W/m² | - |
| 1788618968 | 31.11° C | 71% | 1013.7 hPa | 0 mm | - | 86 W/m² | - |
| 1788618663 | 30.56° C | 74% | 1013.5 hPa | 0 mm | - | 84 W/m² | - |
| 1788618362 | 30.56° C | 76% | 1013.7 hPa | 0 mm | - | 83 W/m² | - |
| 1788618056 | 30° C | 77% | 1013.4 hPa | 0 mm | - | 81 W/m² | - |
| 1788617756 | 30° C | 76% | 1013.7 hPa | 0 mm | - | 81 W/m² | - |
| 1788617453 | 29.44° C | 78% | 1013.6 hPa | 0 mm | - | 79 W/m² | - |
| 1788617153 | 29.44° C | 81% | 1013.6 hPa | 0 mm | - | 81 W/m² | - |
| 1788616852 | 28.89° C | 80% | 1013.6 hPa | 0 mm | - | 125 W/m² | - |
| 1788616548 | 28.89° C | 84% | 1013.6 hPa | 0 mm | - | 88 W/m² | - |
| 1788616247 | 28.89° C | 82% | 1013.8 hPa | 0 mm | - | 90 W/m² | - |
| 1788615943 | 28.33° C | 83% | 1013.5 hPa | 0 mm | - | 76 W/m² | - |
| 1788615641 | 28.33° C | 81% | 1013.7 hPa | 0 mm | - | 73 W/m² | - |
* Rain latest hour (hover to see other rain measurements)
** Current wind speed in m/s (hover to see current wind gust speed)